Location: Unspecified
(39.1833°N, 0.0000°E)
Time: 02:32:20
(UTC+00:00)

UKube-1 - Visible Passes

Search period start: 19 January 2020 00:00
Search period end: 29 January 2020 00:00
Orbit: 614 x 618 km, 98.5° (Epoch: 18 January)

Date Brightness Start Highest point End Pass type
(mag) Time Alt. Az. Time Alt. Az. Time Alt. Az.
19 Jan ? 04:03:59 10° SE 04:04:18 12° ESE 04:04:18 12° ESE visible
19 Jan ? 05:39:56 10° SSW 05:41:24 17° SW 05:41:24 17° SW visible
19 Jan ? 17:26:40 10° NNE 17:30:54 54° E 17:35:06 10° S visible
19 Jan ? 19:04:17 10° NW 19:06:24 14° WNW 19:08:30 10° W visible
20 Jan ? 04:19:31 10° SE 04:20:36 17° SE 04:20:36 17° SE visible
20 Jan ? 05:56:51 10° SW 05:57:41 13° SW 05:57:41 13° SW visible
20 Jan ? 17:42:37 10° NNE 17:46:58 83° ESE 17:51:16 10° SSW visible
21 Jan ? 04:35:17 10° SSE 04:36:54 22° SSE 04:36:54 22° SSE visible
21 Jan ? 17:58:42 10° N 18:02:59 65° WNW 18:07:14 10° SSW visible
22 Jan ? 04:51:13 10° SSE 04:53:13 27° SSE 04:53:13 27° SSE visible
22 Jan ? 18:14:53 10° N 18:18:58 42° WNW 18:23:01 10° SW visible
23 Jan ? 05:07:20 10° S 05:09:32 29° S 05:09:32 29° S visible
23 Jan ? 18:31:12 10° N 18:34:55 29° WNW 18:38:37 10° SW visible
24 Jan ? 05:23:39 10° SSW 05:25:51 26° SSW 05:25:51 26° SSW visible
24 Jan ? 18:47:41 10° NNW 18:50:49 20° WNW 18:53:58 10° WSW visible
25 Jan ? 04:04:20 10° SE 04:05:06 14° ESE 04:05:06 14° ESE visible
25 Jan ? 05:40:11 10° SSW 05:42:10 21° SW 05:42:10 21° SW visible
25 Jan ? 19:04:29 10° NNW 19:06:42 14° WNW 19:08:55 10° W visible
26 Jan ? 04:19:52 10° SE 04:21:26 20° SE 04:21:26 20° SE visible
26 Jan ? 05:57:03 10° SW 05:58:31 15° WSW 05:58:31 15° WSW visible
26 Jan ? 17:42:55 10° NNE 17:47:15 80° ESE 17:51:33 10° S visible
27 Jan ? 04:35:36 10° SSE 04:37:46 28° SE 04:37:46 28° SE visible
27 Jan ? 06:14:40 10° WSW 06:14:51 10° WSW 06:14:51 10° WSW visible
27 Jan ? 17:58:59 10° N 18:03:17 68° WNW 18:07:31 10° SSW visible
28 Jan ? 04:51:31 10° SSE 04:54:06 36° SSE 04:54:06 36° SSE visible
28 Jan ? 18:15:09 10° N 18:19:15 44° WNW 18:23:20 10° SW visible
